Dewpoint
7 7 8 9 11 12 14 17 20 23 24 25 25 26 28 29 29 29 29 29 29 29 28 28 27 27 26 26 25 23 24 21 20 20 21 23 21 21 22 21 21 19 18 16 17 12 4 9 13 14 15 17 18 18 22 26 21 22 22 22 22 22 28
4 5 5 5 6 8 9 12 13 18 21 22 23 24 24 25 25 27 29 29 28 29 29 28 28 28 28 28 28 27 27 27 26 25 24 23 24 22 23 21 22 20 19 18 17 16 8 8 11 10 13 14 15 16 20 23 21 21 21 21 21 21 22
2 2 2 2 3 5 6 8 9 11 16 18 20 21 22 23 24 24 24 25 28 29 29 29 28 28 28 29 28 28 28 28 28 28 27 26 26 25 24 23 23 22 21 20 19 19 14 6 9 9 9 13 13 16 17 20 21 20 22 22 20 21 22
1 1 1 1 1 1 4 7 8 10 14 16 18 19 20 20 22 23 23 24 24 25 26 28 29 29 29 29 29 28 28 29 29 29 28 28 27 27 26 25 24 24 24 23 21 21 20 8 6 7 6 11 13 14 17 19 20 20 21 22 22 22 22
1 1 1 0 0 -0 2 4 8 10 12 14 15 17 17 19 20 21 22 22 23 24 24 25 25 27 28 29 28 28 28 28 28 29 29 28 28 28 28 27 27 26 26 23 22 22 21 21 15 10 6 11 11 12 15 17 19 22 22 22 22 21 22
2 2 -1 -0 -1 -0 1 3 7 9 9 11 13 14 15 17 17 19 20 21 21 22 22 22 23 24 25 25 26 27 28 28 28 28 28 28 28 27 27 27 27 27 26 26 25 24 23 23 22 22 12 10 12 11 11 17 19 20 22 23 23 23 23
0 2 -0 -1 -1 -1 0 2 5 9 8 9 11 13 15 16 16 17 18 18 19 21 21 20 20 20 21 21 22 22 23 24 25 27 27 27 27 27 27 26 26 26 26 25 25 25 25 24 24 24 23 20 12 11 11 12 16 17 20 21 22 22 23
-0 2 0 -1 -1 -2 1 2 4 6 6 8 11 13 14 14 16 17 17 17 18 19 20 19 19 18 18 18 19 20 20 21 21 23 23 26 27 27 26 26 26 26 25 25 24 24 24 24 24 24 25 25 17 13 14 16 16 15 16 18 20 21 21
-2 2 1 -1 -1 -1 -1 2 3 5 6 9 11 13 14 15 16 16 17 17 18 19 19 19 18 16 15 17 19 19 19 20 21 20 21 22 23 24 25 25 25 25 25 24 24 24 24 24 24 24 24 23 23 17 16 17 17 16 18 19 19 20 21
-2 2 2 -0 -1 -1 -0 1 2 4 7 10 12 12 13 15 16 16 16 17 17 17 18 19 19 19 20 20 19 19 18 18 18 19 19 20 21 21 21 22 23 23 23 23 22 22 22 22 22 22 23 23 23 21 16 15 17 16 16 18 19 19 19
-1 -0 1 -0 -1 -1 -1 0 1 3 11 13 14 12 12 14 14 14 14 15 16 17 18 19 20 20 20 19 19 17 17 17 17 18 19 20 20 21 21 20 20 21 22 21 21 21 21 21 20 20 22 22 22 21 18 16 18 17 17 17 15 15 16
-2 -2 -1 -1 -2 -2 -1 -1 0 7 11 13 15 13 12 12 12 12 11 12 13 14 15 16 17 18 18 16 16 15 15 16 17 17 16 17 17 18 19 20 21 21 20 20 20 20 19 19 19 19 21 21 21 21 19 18 18 18 17 16 15 15 15
-3 -3 -3 -4 -4 -4 -2 -3 -1 6 10 13 14 14 12 11 10 9 9 10 11 12 12 13 14 16 17 16 17 18 16 15 14 16 16 15 15 16 16 17 18 19 20 21 21 20 19 19 19 19 20 20 20 21 20 19 17 17 17 16 15 15 16
-5 -4 -5 -6 -6 -6 -6 -5 -1 5 10 12 12 13 12 10 8 7 7 7 8 9 9 10 13 14 13 14 14 14 14 13 12 12 12 12 13 13 15 15 16 17 18 19 19 20 19 20 20 19 19 21 22 21 20 20 18 18 17 17 16 16 16
-6 -5 -4 -6 -7 -8 -7 -6 -2 7 9 11 12 12 11 7 6 5 5 6 6 6 6 8 10 10 10 9 10 14 15 15 15 14 14 13 12 13 13 14 15 15 15 16 16 17 18 19 20 21 21 21 21 21 21 21 20 20 19 19 17 16 13
-6 -6 -6 -7 -7 -7 -7 -7 -1 6 8 10 10 11 6 5 5 4 4 4 4 5 7 10 11 9 7 5 8 10 11 12 14 14 13 13 11 10 11 12 16 17 19 19 18 17 16 16 17 19 20 21 21 21 21 21 21 21 20 19 17 16 16
-6 -5 -6 -6 -8 -8 -8 -8 -4 2 7 9 10 8 5 4 3 2 3 3 5 7 8 8 9 10 8 7 5 8 8 10 10 10 11 13 13 12 10 11 13 16 17 17 17 18 19 20 22 23 23 23 22 21 21 20 19 17 18 17 16 16 16
-6 -6 -6 -8 -9 -8 -7 -8 -5 -3 4 8 9 6 4 3 2 1 1 3 5 6 5 5 5 5 6 5 2 8 8 11 9 6 8 10 10 10 10 11 12 10 12 13 13 13 14 15 16 17 18 20 22 23 23 21 19 19 18 17 16 15 15
-7 -7 -9 -10 -8 -6 -7 -8 -6 -4 -1 6 8 6 3 3 1 1 0 1 1 -0 -0 0 3 4 4 4 5 6 10 9 9 9 8 8 8 7 7 9 11 9 8 7 9 11 12 13 15 15 15 17 19 19 20 20 20 21 21 18 17 16 16
-7 -9 -9 -9 -9 -9 -8 -8 -9 -6 -3 5 7 8 2 1 1 0 -0 -2 -2 -2 -3 -1 -1 2 2 3 4 6 9 10 10 7 6 5 5 4 4 7 9 9 9 8 8 7 8 9 10 12 13 13 14 14 17 20 20 19 19 20 20 18 16
-10 -10 -10 -9 -9 -9 -9 -8 -8 -7 -3 2 4 6 2 1 0 -1 -2 -3 -3 -3 -3 -2 -0 -1 2 3 4 5 5 8 9 7 6 5 4 5 7 8 7 8 9 8 7 7 8 9 11 13 13 13 14 15 14 15 18 20 19 19 18 19 18
-10 -11 -11 -10 -9 -10 -9 -7 -5 -8 -5 -4 0 4 1 -1 -1 -1 -2 -2 -2 -1 -1 -2 -2 -2 -0 1 2 3 6 8 8 6 6 5 7 7 6 6 6 7 7 8 10 10 11 11 10 8 7 8 8 9 12 14 15 17 18 17 17 17 17
-12 -12 -12 -11 -11 -10 -10 -9 -10 -7 -7 -6 -4 1 -1 -2 -2 -0 -1 -2 -4 -4 -4 -3 -3 -1 -1 0 2 4 7 8 5 4 3 4 6 5 4 4 3 4 3 4 6 7 7 8 7 6 5 6 6 7 9 11 14 16 18 19 19 19 18
-13 -14 -15 -15 -13 -14 -12 -12 -11 -6 -8 -7 -7 -6 2 -1 -2 -2 -3 -2 -4 -4 -4 -4 -4 -2 -1 1 2 3 4 3 2 1 2 2 2 2 2 1 2 3 3 4 3 4 4 5 5 5 4 5 7 7 7 10 13 14 16 17 17 18 16
-14 -15 -15 -15 -15 -14 -14 -12 -12 -14 -9 -8 -8 -6 -5 -4 -4 -4 -5 -6 -6 -4 -5 -4 -3 -2 -2 -1 -0 0 0 -0 -0 -1 -0 0 1 1 -1 -1 -1 -1 -1 -0 1 2 3 3 4 4 5 7 8 10 11 11 10 11 12 12 10 9 7
-13 -14 -15 -16 -15 -16 -14 -14 -15 -12 -13 -7 -7 -7 -6 -5 -7 -8 -8 -8 -8 -7 -6 -5 -4 -4 -3 -3 -3 -2 -3 -2 -2 -0 -0 0 0 -2 -2 -2 -2 -2 -2 -3 -2 -1 1 3 3 3 5 6 7 7 6 7 8 9 8 9 10 11 10
-16 -16 -16 -16 -16 -16 -15 -15 -15 -14 -14 -12 -11 -12 -9 -10 -10 -8 -9 -8 -9 -7 -8 -7 -7 -7 -6 -6 -5 -5 -4 -4 -3 -3 -3 -3 -2 -2 -2 -1 -2 -2 -3 -2 -3 -1 0 2 5 5 6 5 5 5 5 6 5 5 6 9 6 8 9
-17 -17 -18 -19 -17 -17 -17 -16 -16 -16 -16 -14 -14 -12 -11 -14 -13 -15 -15 -12 -11 -11 -9 -9 -7 -8 -8 -8 -7 -7 -7 -6 -5 -3 -2 -5 -5 -3 -1 2 2 2 2 2 3 5 5 4 2 0 -1 -0 -1 -1 0 2 2 3 3 5 7 8 7
-16 -14 -17 -16 -16 -17 -17 -16 -17 -18 -8 -9 -11 -10 -12 -14 -15 -14 -13 -9 -9 -10 -10 -10 -10 -10 -10 -10 -9 -8 -7 -7 -10 -10 -8 -10 -10 -9 -6 -3 -4 -3 -3 -3 -2 -2 -0 1 2 2 4 2 1 1 2 4 4 5 6 9 9 7 6
-14 -13 -14 -14 -14 -14 -15 -16 -15 -11 -11 -11 -10 -10 -10 -10 -10 -10 -11 -10 -10 -10 -12 -12 -12 -12 -12 -12 -11 -10 -9 -11 -13 -13 -13 -13 -5 -7 -8 -6 -4 -3 -1 1 2 2 2 2 2 1 0 -1 2 1 1 5 7 5 5 5 6 6 6
-13 -13 -12 -13 -14 -12 -10 -11 -11 -11 -11 -11 -11 -11 -11 -11 -11 -11 -11 -10 -11 -12 -13 -13 -13 -13 -13 -13 -13 -12 -12 -12 -13 -12 -13 -14 -13 -12 -10 -6 -6 -5 -3 -2 -2 -2 -1 -1 -1 -0 1 1 2 2 1 3 4 4 3 3 3 3 3
-14 -14 -14 -13 -13 -14 -14 -12 -11 -12 -11 -11 -11 -12 -11 -11 -11 -11 -11 -12 -11 -14 -14 -14 -15 -15 -15 -14 -13 -12 -11 -12 -15 -14 -15 -15 -14 -13 -11 -10 -9 -6 -7 -6 -6 -5 -4 -4 -3 -2 -1 0 1 -1 -2 -3 -3 -4 -4 -3 -1 2 3
-16 -15 -14 -14 -13 -12 -12 -13 -12 -12 -12 -12 -12 -12 -13 -13 -12 -13 -13 -13 -14 -15 -16 -17 -16 -16 -15 -14 -13 -13 -14 -14 -16 -16 -16 -15 -14 -14 -13 -11 -9 -7 -9 -7 -7 -6 -6 -5 -4 -3 -2 -2 -2 -4 -5 -6 -7 -4 -5 -4 -1 0 1
-18 -18 -17 -16 -16 -15 -15 -14 -14 -14 -14 -14 -14 -14 -14 -14 -15 -13 -13 -14 -16 -16 -18 -17 -18 -17 -17 -16 -15 -15 -15 -15 -16 -15 -15 -15 -16 -15 -14 -13 -12 -13 -9 -8 -7 -6 -4 -3 -2 -1 -1 -1 -1 -1 -3 -6 -6 -5 -6 -5 -2 -1 1
-22 -20 -19 -19 -18 -17 -16 -16 -16 -16 -16 -16 -16 -16 -16 -15 -17 -18 -18 -18 -19 -17 -17 -16 -15 -16 -15 -16 -15 -15 -14 -15 -17 -17 -16 -17 -17 -17 -16 -15 -13 -12 -12 -9 -9 -9 -9 -8 -8 -7 -6 -5 -5 -3 -2 -4 -4 -5 -5 -5 -4 -1 -1
-24 -23 -18 -19 -19 -18 -18 -17 -17 -17 -17 -17 -16 -17 -16 -19 -20 -20 -21 -20 -20 -23 -19 -19 -19 -20 -20 -20 -19 -17 -17 -17 -17 -17 -18 -19 -18 -16 -15 -15 -14 -12 -12 -14 -13 -12 -10 -8 -9 -8 -7 -5 -5 -5 -4 -3 -3 -2 -4 -5 -3 -2 -2